Tracking 31027 objects as of 19-Jul-2025
HD Live streaming from Space Station
objects crossing your sky now

COSMOS 2556

Track COSMOS 2556 now!
10-day predictions


NORAD ID: 52713
Int'l Code: 2022-054A
Perigee: 501.6 km
Apogee: 502.8 km
Inclination: 97.6 °
Period: 94.5 minutes
Semi major axis: 6873 km
RCS: Unknown
Launch date: May 19, 2022
Source: Commonwealth of Independent States (former USSR) (CIS)
Launch site: PLESETSK MISSILE AND SPACE COMPLEX (PKMTR)
Your satellite tracking list
STARLINK-3349
Track 1 satellite(s)




NASA's NSSDC Master Catalog

Two Line Element Set (TLE):
1 52713U 22054A   25199.83604561  .00003701  00000-0  15786-3 0  9991
2 52713  97.5885 139.0980 0000862  76.4709 283.6624 15.23568712175937
Source of the keplerian elements: AFSPC